{"data":{"norad_id":51794,"epoch":"2026-05-25T06:00:02.000160Z","epoch_age_seconds":53635,"freshness":"FRESH","line1":"1 51794U 22017AC  26145.25002315  .00875691  00000+0  12754-1 0  9999","line2":"2 51794  53.2176 358.9146 0001188  78.1881 289.4116 15.52961906  5784","mean_motion":15.52961906,"eccentricity":0.0001188,"inclination_deg":53.2176,"raan_deg":358.9146,"arg_perigee_deg":78.1881,"mean_anomaly_deg":289.4116,"bstar":0.012754,"rev_number":578,"period_min":92.726034968175,"perigee_km":407.27739251379,"apogee_km":408.88979852729,"semimajor_km":6786.2205955205,"source":"CELESTRAK","updated_at":"2026-05-25T13:38:16.955319Z"}}